Regional Weather Roundup
Issued by NWS Jackson, KY

Home | Current Version | Previous Version | Text Only | Print | Product List | Glossary On
Versions: 1 2 3 4 5 6 7 8 9 10 11 12 13 14 15 16 17 18 19 20 21 22 23 24 25 26 27 28 29 30 31 32 33 34 35 36 37 38 39 40 41 42 43 44 45 46 47 48 49 50
000
ASUS43 KJKL 040610
RWRJKL

EAST KENTUCKY HOURLY WEATHER ROUNDUP
NATIONAL WEATHER SERVICE JACKSON KY
200 AM EDT WED MAY 04 2016

NOTE: "FAIR" INDICATES FEW OR NO CLOUDS BELOW 12,000 FEET WITH
NO SIGNIFICANT WEATHER AND/OR OBSTRUCTIONS TO VISIBILITY.

* THESE REPORTS ARE NOT UNDER NWS QUALITY CONTROL AND MAY NOT
  REPORT WEATHER SUCH AS PRECIPITATION AND FOG.

KYZ079-080-083-085-087-088-110-112-115-119-120-040700
...EASTERN KENTUCKY...

CITY           SKY/WX    TMP DP  RH WIND       PRES   REMARKS
JACKSON        CLOUDY    51  48  89 CALM      29.84F
6HR MIN TEMP:  51; 6HR MAX TEMP:  57;

LONDON         CLOUDY    54  46  74 W6        29.86F
6HR MIN TEMP:  53; 6HR MAX TEMP:  58;

SOMERSET*      CLOUDY    50  45  81 W3        29.89S
MONTICELLO*    CLOUDY    51  47  86 W9        29.89F
6HR MIN TEMP:  50; 6HR MAX TEMP:  59;

WILLIAMSBURG*  CLOUDY    52  52 100 CALM      29.87F
MIDDLESBORO*   CLOUDY    53  50  90 CALM      29.86F
6HR MIN TEMP:  51; 6HR MAX TEMP:  61;

HARLAN APT*    CLOUDY    50  46  87 CALM      29.85F
BLACK MTN*       N/A     43  43 100 N6          N/A
PIKE CO APT*   MOCLDY    51  48  90 CALM      29.83F
BIG SANDY APT* CLEAR     51  49  92 CALM      29.83F
6HR MIN TEMP:  51; 6HR MAX TEMP:  59;

MOREHEAD APT*  CLOUDY    52  50  93 CALM      29.85F
$$

KYZ035-036-041-042-044-050-067-078-099-040700
...CENTRAL KENTUCKY...

CITY           SKY/WX    TMP DP  RH WIND       PRES   REMARKS
MT STERLING*   CLOUDY    52  50  93 W6        29.86S
FLEMING/MASON* CLOUDY    50  50  98 W6        29.84F FOG
DANVILLE*      CLOUDY    52  46  82 W3        29.87F
RICHMOND*      CLOUDY    52  46  82 W5        29.86S
LEXINGTON      CLOUDY    52  47  83 W6        29.85F
6HR MIN TEMP:  52; 6HR MAX TEMP:  57;

FRANKFORT      PTCLDY    51  45  79 CALM      29.84F
6HR MIN TEMP:  51; 6HR MAX TEMP:  58;

LOUISVILLE     CLOUDY    55  46  71 SW3       29.85F
6HR MIN TEMP:  54; 6HR MAX TEMP:  59;

LEBANON*         N/A     52  46  82 CALM      29.87F
BOWLING GREEN  CLOUDY    52  46  80 CALM      29.89F
6HR MIN TEMP:  50; 6HR MAX TEMP:  61;

$$

KYZ091>093-OHZ055-061-077-WVZ005-015-034-035-042-040700
...SOUTHERN OHIO/WEST VIRGINIA...

CITY           SKY/WX    TMP DP  RH WIND       PRES   REMARKS
COVINGTON      CLEAR     48  47  96 CALM      29.82F
COLUMBUS       MOCLDY    50  46  86 CALM      29.79F
DAYTON         PTCLDY    48  45  89 SW8       29.80F
WILMINGTON     CLEAR     48  46  93 SW7       29.81F
HUNTINGTON     CLOUDY    53  51  93 CALM      29.81F
CHARLESTON     CLOUDY    55  51  86 W3        29.80F
PINEVILLE*     CLOUDY    51  48  90 MISG      29.87F FOG
BECKLEY        CLOUDY    50  47  89 NW3       29.82F
$$

VAZ002-007-008-TNZ017-027-036-066-071-040700
...SOUTHWEST VIRGINIA/EAST TENNESSEE...

CITY           SKY/WX    TMP DP  RH WIND       PRES   REMARKS
WISE*          CLOUDY    50  39  66 CALM      29.86F
BRISTOL        CLOUDY    57  47  69 NW7       29.84F
MORRISTOWN*    CLOUDY    55  48  76 NW5       29.84F
SEVIERVILLE*   CLOUDY    57  46  67 CALM      29.85F
OAK RIDGE      CLOUDY    58  47  66 SW3       29.87F
CROSSVILLE     CLOUDY    52  46  80 W3        29.89F
NASHVILLE      CLEAR     53  47  79 W5        29.91F
$$

...KEY TO REMARKS...
VSB - VISIBILITY IN MILES
WCI - WIND CHILL INDEX
HX  - HEAT INDEX

$$



USA.gov is the U.S. government's official web portal to all federal, state and local government web resources and services.